Simultaneous Nadir Overpasses (SNOs) Predictions

Prediction of SNOs between GOES-15 and METOP-B Satellite Orbit:

Table of predicted SNOs for the next 14.0 days since TLE Epoch: 3/8/2019
Index Date Time (GOES-15) GOES-15 Lat,Lon METOP-B Lat,Lon Distance(km) Time Diff (sec)
1 03/09/2019 18:02:52 0.02,-128.37 -0.05,-128.11 29.89 80
2 03/11/2019 06:21:52 -0.02,-128.40 -1.01,-132.69 490.52 80
3 03/12/2019 05:58:34 -0.02,-128.39 0.12,-127.71 77.91 80
4 03/13/2019 18:17:27 0.01,-128.35 0.87,-132.27 446.94 80
5 03/14/2019 17:59:28 0.01,-128.34 -0.21,-127.27 121.19 80
6 03/16/2019 06:18:29 -0.01,-128.36 -0.79,-131.87 400.54 80
7 03/17/2019 05:55:11 -0.01,-128.34 0.35,-126.88 167.03 80
8 03/18/2019 18:14:03 0.01,-128.29 0.70,-131.44 359.10 80
9 03/19/2019 17:56:03 0.01,-128.27 -0.38,-126.44 208.58 80
10 03/21/2019 06:15:05 -0.01,-128.29 -0.62,-131.04 313.37 80
11 03/22/2019 05:51:45 -0.02,-128.27 0.46,-126.04 253.98 80




NCC Satellite Simultaneous Nadir Overpasses (SNOs) Prediction Service
